Regional Weather Roundup
Issued by NWS Glasgow, MT

Home | Current Version | Previous Version | Text Only | Print | Product List | Glossary On
Versions: 1 2 3 4 5 6 7 8 9 10 11 12 13 14 15 16 17 18 19 20 21 22 23 24 25 26 27 28 29 30 31 32 33 34 35 36 37 38 39 40 41 42 43 44 45 46 47 48 49 50
000
ASUS45 KGGW 290215
RWRGGW
HOURLY WEATHER ROUNDUP FOR NORTHEAST MONTANA
NATIONAL WEATHER SERVICE GLASGOW MONTANA
800 PM MDT SAT MAR 28 2015

NOTE: "FAIR" INDICATES FEW OR NO CLOUDS BELOW 12,000 FEET WITH NO
SIGNIFICANT WEATHER AND/OR OBSTRUCTIONS TO VISISBILITY.

NORTHEAST MONTANA


CITY           SKY/WX    TMP DP  RH WIND       PRES   REMARKS
GLASGOW        LGT RAIN  47  40  76 W26G35    29.72R
PLENTYWOOD       N/A     53  42  66 W20G35      N/A
WOLF POINT     LGT RAIN  53  36  52 W25G41    29.69R
JORDAN           N/A     51  29  42 W30G43    29.79R
WINNETT          N/A     48  30  49 W31G46      N/A
SIDNEY         CLOUDY    52  39  62 W22G30    29.66R
GLENDIVE         N/A     52  39  62 W18G25    29.73S
MALTA            N/A     45  43  93 W26G37      N/A

FORT PECK REPORTS


CITY           SKY/WX    TMP DP  RH WIND       PRES   REMARKS
FORT PECK        N/A     49  39  68 W30G46      N/A
THE PINES        N/A     48  35  60 W15G35      N/A

SOUTHEAST MONTANA


CITY           SKY/WX    TMP DP  RH WIND       PRES   REMARKS
BILLINGS       PTCLDY    53  15  22 NW31G44   29.96R
MILES CITY     MOCLDY    56  23  27 NW24G36   29.80R
BAKER          CLEAR     48  41  76 W18       29.76R
LIVINGSTON     PTCLDY    49  15  25 W30G43    30.09R

CENTRAL MONTANA


CITY           SKY/WX    TMP DP  RH WIND       PRES   REMARKS
HAVRE          LGT RAIN  44  41  89 W15       29.93R
LEWISTOWN      CLOUDY    45  29  53 W37G53    29.97R
GREAT FALLS    CLOUDY    49  26  41 W18G26    30.05R
CUT BANK       CLOUDY    46  30  53 W22       30.03R
HELENA         CLOUDY    49  25  39 W26G40    30.11R
BUTTE          CLOUDY    42  20  41 NW15G23   30.22R
BOZEMAN        MOCLDY    47  19  33 W14       30.16R

WESTERN MONTANA


CITY           SKY/WX    TMP DP  RH WIND       PRES   REMARKS
MISSOULA       MOCLDY    47  31  53 W13       30.26R
KALISPELL      NOT AVBL

NORTH DAKOTA


CITY           SKY/WX    TMP DP  RH WIND       PRES   REMARKS
WILLISTON      CLOUDY    53  44  71 W20       29.59R
DICKINSON      CLOUDY    49  42  77 W25G36    29.64R
MINOT          CLOUDY    58  47  66 W13       29.47R
BISMARCK       LGT RAIN  58  50  75 NW8       29.60F

SOUTHERN SASKATCHEWAN


CITY           SKY/WX    TMP DP  RH WIND       PRES   REMARKS
REGINA         CLOUDY    39  37  93 N21G28    29.61
ESTEVAN        LGT RAIN  48  46  93 NW10      29.52R
SWIFT CURRENT  CLOUDY    39  39 100 NW30G40   29.76R




USA.gov is the U.S. government's official web portal to all federal, state and local government web resources and services.